NATIONAL KEY DEER NWR FL US current weather conditions

sailwx.info

Wind from 092 at 7 knots gusting 13

Air temperature 27.2° C
Dewpoint 19.8° C

Last reported at 2015-Mar-02 15:38 UTC.
Time now 2015-Mar-02 16:34 UTC

Location: N 24°43' W 081°23'.
View on Google Maps.

See reports from other nearby stations

  
Tides and Currents Weather Stations Pressure Air Temp Water Temp Dewpoint Dewpoint Depression Visibility Wind Speed Wind Dir Waves Ship Positions
date/time (UTC)wind fromknots sea level pressurealtimeterstation pressurevisibilityair tempwater tempwave heightnotes
2015-Mar-02 15:38 092 7 gusting 13 27.2
2015-Mar-02 14:38 077 6 gusting 12 26.1
2015-Mar-02 13:38 084 6 gusting 14 25.0
2015-Mar-02 12:38 084 6 gusting 10 23.9
2015-Mar-02 11:38 080 6 gusting 11 23.3
2015-Mar-02 10:38 087 6 gusting 12 23.9
2015-Mar-02 09:38 087 6 gusting 11 23.3
2015-Mar-02 08:38 088 6 gusting 11 23.9
2015-Mar-02 07:38 082 6 gusting 13 23.9
2015-Mar-02 06:38 092 7 gusting 16 23.9
2015-Mar-02 05:38 091 7 gusting 13 23.9
2015-Mar-02 04:38 083 8 gusting 14 24.4
2015-Mar-02 03:38 082 7 gusting 15 24.4
2015-Mar-02 02:38 083 8 gusting 14 24.4
2015-Mar-02 01:38 082 8 gusting 15 24.4
2015-Mar-02 00:38 085 7 gusting 13 24.4
2015-Mar-01 23:38 091 7 gusting 14 24.4
2015-Mar-01 22:38 085 7 gusting 14 25.6
2015-Mar-01 21:38 089 7 gusting 14 27.2
2015-Mar-01 20:38 093 6 gusting 17 27.2
2015-Mar-01 19:38 095 6 gusting 15 28.9
2015-Mar-01 18:38 090 8 gusting 14 28.9
2015-Mar-01 17:38 109 6 gusting 13 28.9
2015-Mar-01 16:38 103 6 gusting 13 28.3
2015-Mar-01 15:38 101 6 gusting 14 27.8
2015-Mar-01 14:38 094 7 gusting 14 26.7
2015-Mar-01 13:38 083 8 gusting 15 25.6
2015-Mar-01 12:38 083 7 gusting 14 24.4
2015-Mar-01 11:38 083 7 gusting 13 23.9
2015-Mar-01 10:38 080 7 gusting 13 23.9
2015-Mar-01 09:38 087 7 gusting 13 23.9
2015-Mar-01 08:38 086 6 gusting 14 23.9
2015-Mar-01 07:38 083 7 gusting 13 23.9
2015-Mar-01 06:38 082 8 gusting 17 24.4
2015-Mar-01 05:38 084 9 gusting 16 24.4
2015-Mar-01 04:38 086 6 gusting 13 24.4
2015-Mar-01 03:38 082 8 gusting 13 24.4
2015-Mar-01 02:38 085 6 gusting 13 24.4
2015-Mar-01 01:38 085 6 gusting 12 24.4
2015-Mar-01 00:38 078 6 gusting 12 24.4
2015-Feb-28 23:38 082 6 gusting 11 25.0
2015-Feb-28 22:38 094 5 gusting 9 26.7
2015-Feb-28 21:38 107 5 gusting 12 27.8
2015-Feb-28 20:38 106 5 gusting 9 28.3
2015-Feb-28 19:38 092 6 gusting 11 28.3
2015-Feb-28 18:38 117 6 gusting 12 28.9
2015-Feb-28 17:38 101 5 gusting 11 29.4
2015-Feb-28 16:38 086 6 gusting 13 27.2